Location: Madrid
(40.4167°N, 3.7036°W)
Time: 02:15:32
(UTC+00:00)

ISS - Visible Passes

Search period start: 15 December 2025 00:00
Search period end: 25 December 2025 00:00
Orbit: 416 x 420 km, 51.6° (Epoch: 14 December)

Date Brightness Start Highest point End Pass type
(mag) Time Alt. Az. Time Alt. Az. Time Alt. Az.
15 Dec -0.3 04:38:48 11° ESE 04:38:48 11° ESE 04:39:08 10° ESE visible
15 Dec -3.9 06:11:48 18° WSW 06:14:12 77° NW 06:17:34 10° NE visible
16 Dec -3.0 05:26:42 52° E 05:26:42 52° E 05:29:31 10° ENE visible
16 Dec -2.4 07:00:26 10° WNW 07:03:12 23° NNW 07:05:57 10° NNE visible
17 Dec -0.2 04:41:17 10° ENE 04:41:17 10° ENE 04:41:18 10° ENE visible
17 Dec -2.9 06:14:15 28° NW 06:15:00 31° NNW 06:18:04 10° NE visible
18 Dec -1.9 05:28:34 23° NNE 05:28:34 23° NNE 05:30:07 10° NE visible
18 Dec -1.7 07:02:11 10° NW 07:04:14 15° NNW 07:06:17 10° NNE visible
19 Dec -2.0 06:15:40 18° NNW 06:15:54 18° NNW 06:18:19 10° NNE visible
20 Dec -1.2 05:29:41 14° NNE 05:29:41 14° NNE 05:30:23 10° NNE visible
21 Dec -1.5 06:16:31 13° NNW 06:16:52 13° N 06:18:36 10° NNE visible
22 Dec -0.9 05:30:21 11° NNE 05:30:21 11° NNE 05:30:30 10° NNE visible
23 Dec -1.4 06:17:02 12° NNW 06:17:48 12° N 06:19:18 10° NNE visible
24 Dec -0.9 05:30:45 10° NNE 05:30:45 10° NNE 05:30:49 10° NNE visible
24 Dec -1.7 07:04:43 10° NNW 07:07:06 18° NNE 07:09:28 10° ENE visible
